Time,TemperatureF,DewpointF,PressureIn,WindDirection,WindDirectionDegrees,WindSpeedMPH,WindSpeedGustMPH,Humidity,HourlyPrecipIn,Conditions,Clouds,dailyrainin,SoftwareType,DateUTC
2013-02-16 00:00:00,26.6,6.6,29.46,NNE,13,0.0,0.0,42,0.00,,---,0.00,VWS V14.01,2013-02-16 05:00:00,
2013-02-16 00:05:00,26.6,6.6,29.46,NNW,343,2.7,2.7,42,0.00,,---,0.00,VWS V14.01,2013-02-16 05:05:00,
2013-02-16 00:10:00,26.6,6.6,29.46,SSE,167,0.0,0.0,42,0.00,,---,0.00,VWS V14.01,2013-02-16 05:10:00,
2013-02-16 00:15:00,26.4,6.4,29.46,NNW,336,0.0,0.0,42,0.00,,---,0.00,VWS V14.01,2013-02-16 05:15:00,
2013-02-16 00:20:00,26.4,6.4,29.46,WNW,285,0.0,3.6,42,0.00,,---,0.00,VWS V14.01,2013-02-16 05:20:00,
2013-02-16 00:23:00,26.4,6.4,29.46,North,8,0.0,0.0,42,0.00,,---,0.00,VWS V14.01,2013-02-16 05:23:00,
2013-02-16 00:28:00,26.6,6.6,29.46,North,0,0.0,0.0,42,0.00,,---,0.00,VWS V14.01,2013-02-16 05:28:00,
2013-02-16 00:33:00,26.4,6.4,29.46,NW,314,0.0,0.0,42,0.00,,---,0.00,VWS V14.01,2013-02-16 05:33:00,
2013-02-16 00:38:00,26.4,7.0,29.46,West,274,0.0,0.0,43,0.00,,---,0.00,VWS V14.01,2013-02-16 05:38:00,
2013-02-16 00:43:00,26.2,6.8,29.46,West,274,0.0,0.0,43,0.00,,---,0.00,VWS V14.01,2013-02-16 05:43:00,
2013-02-16 00:48:00,26.2,6.8,29.46,NNW,340,0.0,0.0,43,0.00,,---,0.00,VWS V14.01,2013-02-16 05:48:00,
2013-02-16 00:53:00,26.2,6.8,29.46,NNW,330,0.0,0.0,43,0.00,,---,0.00,VWS V14.01,2013-02-16 05:53:00,
2013-02-16 00:58:00,26.2,6.8,29.46,West,267,0.0,0.0,43,0.00,,---,0.00,VWS V14.01,2013-02-16 05:58:00,
2013-02-16 01:03:00,26.2,6.8,29.46,West,267,0.0,0.0,43,0.00,,---,0.00,VWS V14.01,2013-02-16 06:03:00,
2013-02-16 01:08:00,26.2,6.8,29.46,WNW,303,0.0,0.0,43,0.00,,---,0.00,VWS V14.01,2013-02-16 06:08:00,
2013-02-16 01:13:00,26.2,6.8,29.46,NW,312,0.0,0.0,43,0.00,,---,0.00,VWS V14.01,2013-02-16 06:13:00,
2013-02-16 01:18:00,26.2,6.8,29.46,NW,319,0.0,0.0,43,0.00,,---,0.00,VWS V14.01,2013-02-16 06:18:00,
2013-02-16 01:23:00,26.2,6.8,29.46,NNW,346,0.0,0.0,43,0.00,,---,0.00,VWS V14.01,2013-02-16 06:23:00,
2013-02-16 01:28:00,26.2,6.8,29.46,NNW,331,0.0,0.0,43,0.00,,---,0.00,VWS V14.01,2013-02-16 06:28:00,
2013-02-16 01:33:00,26.1,6.6,29.46,WSW,256,0.0,0.0,43,0.00,,---,0.00,VWS V14.01,2013-02-16 06:33:00,
2013-02-16 01:38:00,26.1,6.6,29.46,North,353,0.0,0.0,43,0.00,,---,0.00,VWS V14.01,2013-02-16 06:38:00,
2013-02-16 01:43:00,26.1,6.6,29.46,North,357,0.0,0.0,43,0.00,,---,0.00,VWS V14.01,2013-02-16 06:43:00,
2013-02-16 01:48:00,26.1,6.6,29.46,North,350,0.0,0.0,43,0.00,,---,0.00,VWS V14.01,2013-02-16 06:48:00,
2013-02-16 01:53:00,25.9,6.5,29.46,NNW,333,0.0,0.0,43,0.00,,---,0.00,VWS V14.01,2013-02-16 06:53:00,
2013-02-16 01:58:00,25.9,6.5,29.43,West,275,0.0,0.0,43,0.00,,---,0.00,VWS V14.01,2013-02-16 06:58:00,
2013-02-16 02:03:00,25.9,6.5,29.43,WNW,295,0.0,3.1,43,0.00,,---,0.00,VWS V14.01,2013-02-16 07:03:00,
2013-02-16 02:08:00,25.9,6.5,29.43,NNE,19,0.0,0.0,43,0.00,,---,0.00,VWS V14.01,2013-02-16 07:08:00,
2013-02-16 02:13:00,25.9,6.5,29.43,WSW,252,0.0,0.0,43,0.00,,---,0.00,VWS V14.01,2013-02-16 07:13:00,
2013-02-16 02:18:00,25.7,6.3,29.43,South,181,2.2,2.7,43,0.00,,---,0.00,VWS V14.01,2013-02-16 07:18:00,
2013-02-16 02:23:00,25.5,6.2,29.43,NE,56,0.0,0.0,43,0.00,,---,0.00,VWS V14.01,2013-02-16 07:23:00,
2013-02-16 02:28:00,25.3,6.0,29.43,ENE,65,0.0,0.0,43,0.00,,---,0.00,VWS V14.01,2013-02-16 07:28:00,
2013-02-16 02:33:00,25.0,5.7,29.43,NNE,30,0.0,0.0,43,0.00,,---,0.00,VWS V14.01,2013-02-16 07:33:00,
2013-02-16 02:38:00,25.0,5.7,29.43,SW,231,0.0,0.0,43,0.00,,---,0.00,VWS V14.01,2013-02-16 07:38:00,
2013-02-16 02:43:00,24.8,5.5,29.43,NNE,19,0.0,0.0,43,0.00,,---,0.00,VWS V14.01,2013-02-16 07:43:00,
2013-02-16 02:48:00,24.6,5.3,29.43,ENE,72,0.0,0.0,43,0.00,,---,0.00,VWS V14.01,2013-02-16 07:48:00,
2013-02-16 02:53:00,24.6,5.3,29.43,NW,308,2.2,3.1,43,0.00,,---,0.00,VWS V14.01,2013-02-16 07:53:00,
2013-02-16 02:58:00,24.1,4.8,29.43,North,2,3.1,3.1,43,0.00,,---,0.00,VWS V14.01,2013-02-16 07:58:00,
2013-02-16 03:03:00,23.7,4.5,29.43,NNE,16,0.0,0.0,43,0.00,,---,0.00,VWS V14.01,2013-02-16 08:03:00,
2013-02-16 03:08:00,23.5,4.3,29.43,NNE,21,2.7,2.7,43,0.00,,---,0.00,VWS V14.01,2013-02-16 08:08:00,
2013-02-16 03:13:00,23.2,4.0,29.43,NNE,26,0.0,0.0,43,0.00,,---,0.00,VWS V14.01,2013-02-16 08:13:00,
2013-02-16 03:18:00,23.0,4.3,29.43,West,266,0.0,0.0,44,0.00,,---,0.00,VWS V14.01,2013-02-16 08:18:00,
2013-02-16 03:23:00,22.8,4.2,29.43,NNE,28,0.0,0.0,44,0.00,,---,0.00,VWS V14.01,2013-02-16 08:23:00,
2013-02-16 03:28:00,22.6,4.0,29.43,North,353,0.0,0.0,44,0.00,,---,0.00,VWS V14.01,2013-02-16 08:28:00,
2013-02-16 03:33:00,22.5,3.9,29.43,SW,225,3.1,3.1,44,0.00,,---,0.00,VWS V14.01,2013-02-16 08:33:00,
2013-02-16 03:38:00,22.3,3.2,29.43,NNE,12,4.0,4.0,43,0.00,,---,0.00,VWS V14.01,2013-02-16 08:38:00,
2013-02-16 03:43:00,22.1,3.0,29.43,North,353,2.7,2.7,43,0.00,,---,0.00,VWS V14.01,2013-02-16 08:43:00,
2013-02-16 03:48:00,21.9,2.9,29.43,East,81,2.2,2.7,43,0.00,,---,0.00,VWS V14.01,2013-02-16 08:48:00,
2013-02-16 03:53:00,21.9,2.9,29.43,NNE,24,0.0,0.0,43,0.00,,---,0.00,VWS V14.01,2013-02-16 08:53:00,
2013-02-16 03:58:00,21.9,2.9,29.43,NE,44,0.0,0.0,43,0.00,,---,0.00,VWS V14.01,2013-02-16 08:58:00,
2013-02-16 04:03:00,21.7,2.7,29.43,NNW,332,0.0,2.2,43,0.00,,---,0.00,VWS V14.01,2013-02-16 09:03:00,
2013-02-16 04:08:00,21.7,2.7,29.43,West,278,0.0,0.0,43,0.00,,---,0.00,VWS V14.01,2013-02-16 09:08:00,
2013-02-16 04:13:00,21.6,2.5,29.43,NNW,341,0.0,0.0,43,0.00,,---,0.00,VWS V14.01,2013-02-16 09:13:00,
2013-02-16 04:18:00,21.4,2.4,29.43,ESE,105,0.0,0.0,43,0.00,,---,0.00,VWS V14.01,2013-02-16 09:18:00,
2013-02-16 04:23:00,21.2,2.7,29.43,WNW,300,0.0,0.0,44,0.00,,---,0.00,VWS V14.01,2013-02-16 09:23:00,
2013-02-16 04:28:00,21.2,2.7,29.43,NW,319,0.0,0.0,44,0.00,,---,0.00,VWS V14.01,2013-02-16 09:28:00,
2013-02-16 04:33:00,21.0,2.5,29.43,SSE,167,0.0,0.0,44,0.00,,---,0.00,VWS V14.01,2013-02-16 09:33:00,
2013-02-16 04:38:00,20.8,2.4,29.43,SW,222,0.0,0.0,44,0.00,,---,0.00,VWS V14.01,2013-02-16 09:38:00,
2013-02-16 04:43:00,20.7,2.2,29.43,NNE,29,0.0,0.0,44,0.00,,---,0.00,VWS V14.01,2013-02-16 09:43:00,
2013-02-16 04:48:00,20.5,2.0,29.43,NW,325,0.0,0.0,44,0.00,,---,0.00,VWS V14.01,2013-02-16 09:48:00,
2013-02-16 04:53:00,20.3,1.9,29.43,NW,309,0.0,0.0,44,0.00,,---,0.00,VWS V14.01,2013-02-16 09:53:00,
2013-02-16 04:58:00,20.5,2.0,29.43,NE,43,0.0,0.0,44,0.00,,---,0.00,VWS V14.01,2013-02-16 09:58:00,
2013-02-16 05:03:00,20.5,2.0,29.43,SSW,205,0.0,0.0,44,0.00,,---,0.00,VWS V14.01,2013-02-16 10:03:00,
2013-02-16 05:08:00,20.5,2.0,29.43,NE,54,0.0,0.0,44,0.00,,---,0.00,VWS V14.01,2013-02-16 10:08:00,
2013-02-16 05:13:00,20.3,1.9,29.43,North,357,2.2,2.2,44,0.00,,---,0.00,VWS V14.01,2013-02-16 10:13:00,
2013-02-16 05:18:00,20.1,1.7,29.43,West,263,0.0,0.0,44,0.00,,---,0.00,VWS V14.01,2013-02-16 10:18:00,
2013-02-16 05:23:00,19.9,1.5,29.43,WNW,286,0.0,0.0,44,0.00,,---,0.00,VWS V14.01,2013-02-16 10:23:00,
2013-02-16 05:28:00,20.1,1.7,29.43,NNE,14,0.0,0.0,44,0.00,,---,0.00,VWS V14.01,2013-02-16 10:28:00,
2013-02-16 05:33:00,20.1,1.7,29.43,NW,304,0.0,0.0,44,0.00,,---,0.00,VWS V14.01,2013-02-16 10:33:00,
2013-02-16 05:38:00,19.8,1.4,29.43,ENE,67,0.0,0.0,44,0.00,,---,0.00,VWS V14.01,2013-02-16 10:38:00,
2013-02-16 05:43:00,19.6,1.2,29.43,ENE,60,0.0,0.0,44,0.00,,---,0.00,VWS V14.01,2013-02-16 10:43:00,
2013-02-16 05:48:00,19.8,1.4,29.43,West,265,0.0,0.0,44,0.00,,---,0.00,VWS V14.01,2013-02-16 10:48:00,
2013-02-16 05:53:00,20.1,1.7,29.43,NNW,328,0.0,0.0,44,0.00,,---,0.00,VWS V14.01,2013-02-16 10:53:00,
2013-02-16 05:58:00,20.3,1.9,29.43,NNW,328,0.0,0.0,44,0.00,,---,0.00,VWS V14.01,2013-02-16 10:58:00,
2013-02-16 06:03:00,20.3,1.9,29.43,NNE,24,0.0,0.0,44,0.00,,---,0.00,VWS V14.01,2013-02-16 11:03:00,
2013-02-16 06:08:00,20.3,1.9,29.43,NNE,15,0.0,0.0,44,0.00,,---,0.00,VWS V14.01,2013-02-16 11:08:00,
2013-02-16 06:13:00,20.5,2.0,29.43,NNE,15,0.0,0.0,44,0.00,,---,0.00,VWS V14.01,2013-02-16 11:13:00,
2013-02-16 06:18:00,20.5,2.0,29.43,NE,38,0.0,0.0,44,0.00,,---,0.00,VWS V14.01,2013-02-16 11:18:00,
2013-02-16 06:23:00,20.3,1.9,29.43,NNE,25,0.0,0.0,44,0.00,,---,0.00,VWS V14.01,2013-02-16 11:23:00,
2013-02-16 06:28:00,20.3,1.9,29.43,NNE,20,0.0,0.0,44,0.00,,---,0.00,VWS V14.01,2013-02-16 11:28:00,
2013-02-16 06:33:00,20.3,1.9,29.43,NNE,20,0.0,0.0,44,0.00,,---,0.00,VWS V14.01,2013-02-16 11:33:00,
2013-02-16 06:38:00,20.1,1.7,29.43,North,0,0.0,0.0,44,0.00,,---,0.00,VWS V14.01,2013-02-16 11:38:00,
2013-02-16 06:43:00,19.9,1.5,29.43,North,10,0.0,0.0,44,0.00,,---,0.00,VWS V14.01,2013-02-16 11:43:00,
2013-02-16 06:48:00,19.8,1.4,29.43,North,9,0.0,0.0,44,0.00,,---,0.00,VWS V14.01,2013-02-16 11:48:00,
2013-02-16 06:53:00,19.6,1.2,29.43,NNE,24,0.0,0.0,44,0.00,,---,0.00,VWS V14.01,2013-02-16 11:53:00,
2013-02-16 06:58:00,19.4,1.1,29.43,North,11,0.0,0.0,44,0.00,,---,0.00,VWS V14.01,2013-02-16 11:58:00,
2013-02-16 07:03:00,19.4,1.1,29.43,NE,41,0.0,0.0,44,0.00,,---,0.00,VWS V14.01,2013-02-16 12:03:00,
2013-02-16 07:08:00,19.4,1.1,29.43,NE,41,0.0,0.0,44,0.00,,---,0.00,VWS V14.01,2013-02-16 12:08:00,
2013-02-16 07:13:00,19.4,1.1,29.43,NE,41,0.0,0.0,44,0.00,,---,0.00,VWS V14.01,2013-02-16 12:13:00,
2013-02-16 07:18:00,19.4,1.1,29.43,NE,41,0.0,0.0,44,0.00,,---,0.00,VWS V14.01,2013-02-16 12:18:00,
2013-02-16 07:23:00,19.6,0.7,29.43,NE,41,0.0,0.0,43,0.00,,---,0.00,VWS V14.01,2013-02-16 12:23:00,
2013-02-16 07:28:00,19.6,0.7,29.43,NE,41,0.0,0.0,43,0.00,,---,0.00,VWS V14.01,2013-02-16 12:28:00,
2013-02-16 07:33:00,19.8,0.9,29.43,NNW,332,0.0,0.0,43,0.00,,---,0.00,VWS V14.01,2013-02-16 12:33:00,
2013-02-16 07:38:00,19.9,1.1,29.43,NNW,331,0.0,0.0,43,0.00,,---,0.00,VWS V14.01,2013-02-16 12:38:00,
2013-02-16 07:43:00,19.9,1.1,29.43,NNW,331,0.0,0.0,43,0.00,,---,0.00,VWS V14.01,2013-02-16 12:43:00,
2013-02-16 07:48:00,19.9,1.1,29.43,West,277,0.0,0.0,43,0.00,,---,0.00,VWS V14.01,2013-02-16 12:48:00,
2013-02-16 07:53:00,20.1,1.2,29.43,West,277,0.0,0.0,43,0.00,,---,0.00,VWS V14.01,2013-02-16 12:53:00,
2013-02-16 07:58:00,20.1,1.2,29.43,West,277,0.0,0.0,43,0.00,,---,0.00,VWS V14.01,2013-02-16 12:58:00,
2013-02-16 08:03:00,20.3,1.4,29.43,West,277,0.0,0.0,43,0.00,,---,0.00,VWS V14.01,2013-02-16 13:03:00,
2013-02-16 08:08:00,20.3,1.4,29.43,West,277,0.0,0.0,43,0.00,,---,0.00,VWS V14.01,2013-02-16 13:08:00,
2013-02-16 08:13:00,20.5,1.5,29.43,West,277,0.0,0.0,43,0.00,,---,0.00,VWS V14.01,2013-02-16 13:13:00,
2013-02-16 08:17:00,20.5,1.5,29.43,West,277,0.0,0.0,43,0.00,,---,0.00,VWS V14.01,2013-02-16 13:17:00,
2013-02-16 08:22:00,20.7,1.7,29.43,West,277,0.0,0.0,43,0.00,,---,0.00,VWS V14.01,2013-02-16 13:22:00,
2013-02-16 08:28:00,21.0,2.0,29.43,West,277,0.0,0.0,43,0.00,,---,0.00,VWS V14.01,2013-02-16 13:28:00,
2013-02-16 08:33:00,21.2,2.2,29.43,West,277,0.0,0.0,43,0.00,,---,0.00,VWS V14.01,2013-02-16 13:33:00,
2013-02-16 08:38:00,21.6,2.5,29.43,West,277,0.0,0.0,43,0.00,,---,0.00,VWS V14.01,2013-02-16 13:38:00,
2013-02-16 08:43:00,21.4,2.4,29.43,NNE,24,0.0,0.0,43,0.00,,---,0.00,VWS V14.01,2013-02-16 13:43:00,
2013-02-16 08:48:00,21.7,2.7,29.43,NNE,24,0.0,0.0,43,0.00,,---,0.00,VWS V14.01,2013-02-16 13:48:00,
2013-02-16 08:53:00,21.9,2.9,29.43,NNE,24,0.0,0.0,43,0.00,,---,0.00,VWS V14.01,2013-02-16 13:53:00,
2013-02-16 08:58:00,22.1,3.0,29.43,NNW,330,0.0,0.0,43,0.00,,---,0.00,VWS V14.01,2013-02-16 13:58:00,
2013-02-16 09:03:00,22.1,3.0,29.43,NNW,330,0.0,0.0,43,0.00,,---,0.00,VWS V14.01,2013-02-16 14:03:00,
2013-02-16 09:08:00,22.3,3.2,29.43,NNW,330,0.0,0.0,43,0.00,,---,0.00,VWS V14.01,2013-02-16 14:08:00,
2013-02-16 09:13:00,22.3,3.2,29.43,NNW,330,0.0,0.0,43,0.00,,---,0.00,VWS V14.01,2013-02-16 14:13:00,
2013-02-16 09:18:00,22.8,3.7,29.43,NNW,330,0.0,0.0,43,0.00,,---,0.00,VWS V14.01,2013-02-16 14:18:00,
2013-02-16 09:23:00,23.5,3.8,29.43,NNW,330,0.0,0.0,42,0.00,,---,0.00,VWS V14.01,2013-02-16 14:23:00,
2013-02-16 09:28:00,23.9,4.2,29.43,NNE,26,0.0,0.0,42,0.00,,---,0.00,VWS V14.01,2013-02-16 14:28:00,
2013-02-16 09:33:00,23.7,4.0,29.43,WNW,301,0.0,0.0,42,0.00,,---,0.00,VWS V14.01,2013-02-16 14:33:00,
2013-02-16 09:38:00,23.9,4.2,29.43,WNW,301,0.0,0.0,42,0.00,,---,0.00,VWS V14.01,2013-02-16 14:38:00,
2013-02-16 09:43:00,24.4,4.7,29.43,WNW,300,0.0,0.0,42,0.00,,---,0.00,VWS V14.01,2013-02-16 14:43:00,
2013-02-16 09:48:00,25.3,5.5,29.43,West,273,0.0,0.0,42,0.00,,---,0.00,VWS V14.01,2013-02-16 14:48:00,
2013-02-16 09:53:00,25.2,5.3,29.43,NNW,338,0.0,0.0,42,0.00,,---,0.00,VWS V14.01,2013-02-16 14:53:00,
2013-02-16 09:58:00,25.2,5.3,29.43,NNW,327,0.0,0.0,42,0.00,,---,0.00,VWS V14.01,2013-02-16 14:58:00,
2013-02-16 10:03:00,25.3,5.5,29.43,North,357,0.0,0.0,42,0.00,,---,0.00,VWS V14.01,2013-02-16 15:03:00,
2013-02-16 10:08:00,24.4,4.7,29.43,North,357,0.0,0.0,42,0.00,,---,0.00,VWS V14.01,2013-02-16 15:08:00,
2013-02-16 10:13:00,24.3,4.5,29.43,NW,306,0.0,0.0,42,0.00,,---,0.00,VWS V14.01,2013-02-16 15:13:00,
2013-02-16 10:18:00,25.3,5.5,29.43,NNW,336,0.0,0.0,42,0.00,,---,0.00,VWS V14.01,2013-02-16 15:18:00,
2013-02-16 10:23:00,25.5,5.6,29.43,SSE,163,0.0,0.0,42,0.00,,---,0.00,VWS V14.01,2013-02-16 15:23:00,
2013-02-16 10:28:00,24.8,5.0,29.43,North,357,0.0,0.0,42,0.00,,---,0.00,VWS V14.01,2013-02-16 15:28:00,
2013-02-16 10:33:00,24.1,4.3,29.43,NNE,20,0.0,0.0,42,0.00,,---,0.00,VWS V14.01,2013-02-16 15:33:00,
2013-02-16 10:38:00,23.9,4.2,29.43,SW,225,0.0,0.0,42,0.00,,---,0.00,VWS V14.01,2013-02-16 15:38:00,
2013-02-16 10:43:00,24.1,4.3,29.40,WNW,296,0.0,0.0,42,0.00,,---,0.00,VWS V14.01,2013-02-16 15:43:00,
2013-02-16 10:48:00,25.3,5.5,29.40,NW,304,4.0,4.0,42,0.00,,---,0.00,VWS V14.01,2013-02-16 15:48:00,
2013-02-16 10:53:00,27.0,6.4,29.40,NW,314,0.0,0.0,41,0.00,,---,0.00,VWS V14.01,2013-02-16 15:53:00,
2013-02-16 10:58:00,25.9,6.0,29.40,North,11,0.0,0.0,42,0.00,,---,0.00,VWS V14.01,2013-02-16 15:58:00,
2013-02-16 11:03:00,25.3,5.5,29.40,WNW,287,0.0,0.0,42,0.00,,---,0.00,VWS V14.01,2013-02-16 16:03:00,
2013-02-16 11:08:00,27.1,6.6,29.40,WNW,296,0.0,0.0,41,0.00,,---,0.00,VWS V14.01,2013-02-16 16:08:00,
2013-02-16 11:13:00,26.1,6.1,29.40,East,96,0.0,0.0,42,0.00,,---,0.00,VWS V14.01,2013-02-16 16:13:00,
2013-02-16 11:18:00,26.6,6.6,29.40,NNE,15,0.0,0.0,42,0.00,,---,0.00,VWS V14.01,2013-02-16 16:18:00,
2013-02-16 11:23:00,25.5,5.6,29.40,WNW,287,2.7,2.7,42,0.00,,---,0.00,VWS V14.01,2013-02-16 16:23:00,
2013-02-16 11:28:00,25.3,5.5,29.40,NE,37,0.0,0.0,42,0.00,,---,0.00,VWS V14.01,2013-02-16 16:28:00,
2013-02-16 11:33:00,25.3,5.5,29.40,WNW,293,2.2,2.2,42,0.00,,---,0.00,VWS V14.01,2013-02-16 16:33:00,
2013-02-16 11:38:00,25.5,5.6,29.40,NNE,21,0.0,2.7,42,0.00,,---,0.00,VWS V14.01,2013-02-16 16:38:00,
2013-02-16 11:42:00,25.5,5.6,29.40,WNW,283,2.7,2.7,42,0.00,,---,0.00,VWS V14.01,2013-02-16 16:42:00,
2013-02-16 11:47:00,26.8,6.2,29.40,WNW,286,0.0,0.0,41,0.04,,---,0.04,VWS V14.01,2013-02-16 16:47:00,
2013-02-16 11:52:00,26.1,6.1,29.40,NE,38,0.0,0.0,42,0.04,,---,0.04,VWS V14.01,2013-02-16 16:52:00,
2013-02-16 11:57:00,25.3,5.5,29.40,WNW,294,3.6,3.6,42,0.04,,---,0.04,VWS V14.01,2013-02-16 16:57:00,
2013-02-16 12:02:00,26.1,6.1,29.40,West,265,2.2,2.2,42,0.04,,---,0.04,VWS V14.01,2013-02-16 17:02:00,
2013-02-16 12:07:00,27.0,6.4,29.40,NE,49,0.0,0.0,41,0.04,,---,0.04,VWS V14.01,2013-02-16 17:07:00,
2013-02-16 12:12:00,27.9,7.2,29.37,West,275,0.0,0.0,41,0.04,,---,0.04,VWS V14.01,2013-02-16 17:12:00,
2013-02-16 12:17:00,27.7,7.1,29.37,WSW,249,4.0,4.0,41,0.04,,---,0.04,VWS V14.01,2013-02-16 17:17:00,
2013-02-16 12:22:00,28.4,7.7,29.37,West,262,2.7,2.7,41,0.04,,---,0.04,VWS V14.01,2013-02-16 17:22:00,
2013-02-16 12:24:00,28.9,8.2,29.37,West,265,2.7,3.6,41,0.04,,---,0.04,VWS V14.01,2013-02-16 17:24:00,
2013-02-16 12:27:00,28.9,8.2,29.37,West,265,2.7,3.6,41,0.04,,---,0.04,VWS V14.01,2013-02-16 17:27:00,
2013-02-16 12:32:00,27.9,7.2,29.37,WSW,256,4.0,5.4,41,0.00,,---,0.04,VWS V14.01,2013-02-16 17:32:00,
2013-02-16 12:42:00,25.7,5.8,29.37,NNW,334,0.0,0.0,42,0.00,,---,0.04,VWS V14.01,2013-02-16 17:42:00,
2013-02-16 12:47:00,25.9,6.0,29.37,South,191,0.0,0.0,42,0.00,,---,0.04,VWS V14.01,2013-02-16 17:47:00,
2013-02-16 12:52:00,27.7,7.1,29.37,WNW,286,0.0,4.0,41,0.00,,---,0.04,VWS V14.01,2013-02-16 17:52:00,
2013-02-16 12:57:00,28.4,7.7,29.37,NW,323,2.2,3.6,41,0.00,,---,0.04,VWS V14.01,2013-02-16 17:57:00,
2013-02-16 13:02:00,29.3,8.5,29.37,WNW,297,5.4,5.4,41,0.00,,---,0.04,VWS V14.01,2013-02-16 18:02:00,
2013-02-16 13:07:00,27.1,6.6,29.37,NNW,335,0.0,3.1,41,0.00,,---,0.04,VWS V14.01,2013-02-16 18:07:00,
2013-02-16 13:12:00,26.2,6.3,29.37,West,280,0.0,0.0,42,0.00,,---,0.04,VWS V14.01,2013-02-16 18:12:00,
2013-02-16 13:17:00,27.9,7.2,29.37,WSW,257,3.1,3.1,41,0.00,,---,0.04,VWS V14.01,2013-02-16 18:17:00,
2013-02-16 13:22:00,27.9,7.2,29.37,West,268,0.0,5.8,41,0.00,,---,0.04,VWS V14.01,2013-02-16 18:22:00,
2013-02-16 13:27:00,27.0,6.4,29.37,NNW,338,3.1,3.1,41,0.00,,---,0.04,VWS V14.01,2013-02-16 18:27:00,
2013-02-16 13:35:00,25.3,5.5,29.37,NW,312,0.0,0.0,42,0.00,,---,0.04,VWS V14.01,2013-02-16 18:35:00,
2013-02-16 13:40:00,25.0,5.1,29.37,North,10,0.0,0.0,42,0.00,,---,0.04,VWS V14.01,2013-02-16 18:40:00,
2013-02-16 13:45:00,25.0,5.1,29.37,NNE,24,2.2,5.8,42,0.00,,---,0.04,VWS V14.01,2013-02-16 18:45:00,
2013-02-16 13:50:00,25.5,5.6,29.37,WNW,303,3.6,3.6,42,0.00,,---,0.04,VWS V14.01,2013-02-16 18:50:00,
2013-02-16 13:55:00,25.5,5.6,29.37,West,265,2.7,2.7,42,0.00,,---,0.04,VWS V14.01,2013-02-16 18:55:00,
2013-02-16 14:00:00,24.6,4.8,29.34,NNW,332,3.1,3.1,42,0.00,,---,0.04,VWS V14.01,2013-02-16 19:00:00,
2013-02-16 14:05:00,25.3,5.5,29.34,North,353,0.0,0.0,42,0.00,,---,0.04,VWS V14.01,2013-02-16 19:05:00,
2013-02-16 14:10:00,25.7,5.8,29.34,West,263,2.7,3.6,42,0.00,,---,0.04,VWS V14.01,2013-02-16 19:10:00,
2013-02-16 14:15:00,25.5,5.6,29.34,NW,316,5.8,5.8,42,0.00,,---,0.04,VWS V14.01,2013-02-16 19:15:00,
2013-02-16 14:20:00,24.4,4.7,29.34,NNW,344,0.0,0.0,42,0.00,,---,0.04,VWS V14.01,2013-02-16 19:20:00,
2013-02-16 14:25:00,24.4,4.7,29.34,West,275,3.1,4.9,42,0.00,,---,0.04,VWS V14.01,2013-02-16 19:25:00,
2013-02-16 14:30:00,24.8,5.0,29.34,SSW,209,0.0,4.0,42,0.00,,---,0.04,VWS V14.01,2013-02-16 19:30:00,
2013-02-16 14:35:00,24.8,5.0,29.34,WSW,251,0.0,0.0,42,0.00,,---,0.04,VWS V14.01,2013-02-16 19:35:00,
2013-02-16 14:40:00,24.4,4.7,29.34,WSW,246,0.0,0.0,42,0.00,,---,0.04,VWS V14.01,2013-02-16 19:40:00,
2013-02-16 14:45:00,24.6,4.8,29.37,NNE,27,0.0,0.0,42,0.00,,---,0.04,VWS V14.01,2013-02-16 19:45:00,
2013-02-16 14:50:00,23.5,3.8,29.37,West,268,3.1,5.4,42,0.00,,---,0.04,VWS V14.01,2013-02-16 19:50:00,
2013-02-16 14:55:00,23.7,4.0,29.37,West,270,2.7,3.6,42,0.00,,---,0.04,VWS V14.01,2013-02-16 19:55:00,
2013-02-16 15:00:00,24.4,4.7,29.34,WNW,298,5.4,6.3,42,0.00,,---,0.04,VWS V14.01,2013-02-16 20:00:00,
2013-02-16 15:05:00,23.9,4.2,29.34,NNE,32,0.0,3.6,42,0.00,,---,0.04,VWS V14.01,2013-02-16 20:05:00,
2013-02-16 15:10:00,24.4,4.7,29.34,NW,304,0.0,0.0,42,0.00,,---,0.04,VWS V14.01,2013-02-16 20:10:00,
2013-02-16 15:15:00,25.2,5.3,29.34,NW,320,5.4,5.4,42,0.00,,---,0.04,VWS V14.01,2013-02-16 20:15:00,
2013-02-16 15:20:00,26.1,6.1,29.34,West,275,6.3,6.3,42,0.00,,---,0.04,VWS V14.01,2013-02-16 20:20:00,
2013-02-16 15:25:00,25.3,5.5,29.34,NNW,333,3.1,5.8,42,0.00,,---,0.04,VWS V14.01,2013-02-16 20:25:00,
2013-02-16 15:30:00,25.0,5.1,29.34,North,353,4.0,4.0,42,0.00,,---,0.04,VWS V14.01,2013-02-16 20:30:00,
2013-02-16 15:35:00,25.0,5.1,29.34,NW,322,3.1,5.4,42,0.00,,---,0.04,VWS V14.01,2013-02-16 20:35:00,
2013-02-16 15:40:00,24.6,4.8,29.34,NNW,331,0.0,3.6,42,0.00,,---,0.04,VWS V14.01,2013-02-16 20:40:00,
2013-02-16 15:45:00,24.4,4.7,29.34,NE,39,2.2,2.7,42,0.00,,---,0.04,VWS V14.01,2013-02-16 20:45:00,
2013-02-16 15:50:00,24.4,4.7,29.34,West,271,2.7,4.0,42,0.00,,---,0.04,VWS V14.01,2013-02-16 20:50:00,
2013-02-16 15:55:00,23.7,4.0,29.34,WNW,293,0.0,0.0,42,0.00,,---,0.04,VWS V14.01,2013-02-16 20:55:00,
2013-02-16 16:00:00,23.2,3.5,29.37,NNE,19,0.0,3.1,42,0.00,,---,0.04,VWS V14.01,2013-02-16 21:00:00,
2013-02-16 16:05:00,23.5,3.8,29.37,NNE,29,0.0,0.0,42,0.00,,---,0.04,VWS V14.01,2013-02-16 21:05:00,
2013-02-16 16:10:00,24.4,4.7,29.37,West,269,0.0,3.1,42,0.00,,---,0.04,VWS V14.01,2013-02-16 21:10:00,
2013-02-16 16:15:00,24.4,4.7,29.37,WSW,254,0.0,0.0,42,0.00,,---,0.04,VWS V14.01,2013-02-16 21:15:00,
2013-02-16 16:20:00,23.9,4.2,29.37,NW,313,0.0,0.0,42,0.00,,---,0.04,VWS V14.01,2013-02-16 21:20:00,
2013-02-16 16:25:00,23.5,3.8,29.37,West,281,0.0,0.0,42,0.00,,---,0.04,VWS V14.01,2013-02-16 21:25:00,
2013-02-16 16:30:00,23.2,3.5,29.37,ESE,121,0.0,0.0,42,0.00,,---,0.04,VWS V14.01,2013-02-16 21:30:00,
2013-02-16 16:35:00,22.6,3.0,29.37,NW,306,3.1,3.1,42,0.00,,---,0.04,VWS V14.01,2013-02-16 21:35:00,
2013-02-16 16:40:00,22.5,2.8,29.37,East,82,0.0,0.0,42,0.00,,---,0.04,VWS V14.01,2013-02-16 21:40:00,
2013-02-16 16:45:00,22.6,3.0,29.34,ENE,67,0.0,4.9,42,0.00,,---,0.04,VWS V14.01,2013-02-16 21:45:00,
2013-02-16 16:50:00,22.6,3.0,29.34,West,265,0.0,0.0,42,0.00,,---,0.04,VWS V14.01,2013-02-16 21:50:00,
2013-02-16 16:55:00,22.8,3.2,29.34,West,267,0.0,0.0,42,0.00,,---,0.04,VWS V14.01,2013-02-16 21:55:00,
2013-02-16 17:00:00,22.8,3.2,29.37,WNW,296,3.6,3.6,42,0.00,,---,0.04,VWS V14.01,2013-02-16 22:00:00,
2013-02-16 17:05:00,22.8,3.2,29.37,West,281,3.1,3.1,42,0.00,,---,0.04,VWS V14.01,2013-02-16 22:05:00,
2013-02-16 17:10:00,22.3,2.7,29.37,NNW,339,4.0,4.0,42,0.00,,---,0.04,VWS V14.01,2013-02-16 22:10:00,
2013-02-16 17:15:00,21.9,2.4,29.37,West,277,4.0,4.0,42,0.00,,---,0.04,VWS V14.01,2013-02-16 22:15:00,
2013-02-16 17:20:00,21.7,2.2,29.37,West,275,0.0,0.0,42,0.00,,---,0.04,VWS V14.01,2013-02-16 22:20:00,
2013-02-16 17:25:00,21.6,2.0,29.37,WSW,245,0.0,0.0,42,0.00,,---,0.04,VWS V14.01,2013-02-16 22:25:00,
2013-02-16 17:30:00,21.4,1.9,29.37,West,269,2.7,3.6,42,0.00,,---,0.04,VWS V14.01,2013-02-16 22:30:00,
2013-02-16 17:35:00,21.2,2.2,29.37,West,280,0.0,0.0,43,0.00,,---,0.04,VWS V14.01,2013-02-16 22:35:00,
2013-02-16 17:40:00,21.2,2.2,29.37,West,267,4.9,5.4,43,0.00,,---,0.04,VWS V14.01,2013-02-16 22:40:00,
2013-02-16 17:45:00,21.0,2.0,29.37,NNW,335,2.2,3.6,43,0.00,,---,0.04,VWS V14.01,2013-02-16 22:45:00,
2013-02-16 17:50:00,20.7,1.7,29.37,West,275,4.0,4.0,43,0.00,,---,0.04,VWS V14.01,2013-02-16 22:50:00,
2013-02-16 17:55:00,20.3,1.4,29.37,West,264,0.0,0.0,43,0.00,,---,0.04,VWS V14.01,2013-02-16 22:55:00,
2013-02-16 18:00:00,19.6,0.7,29.37,NNE,13,0.0,0.0,43,0.00,,---,0.04,VWS V14.01,2013-02-16 23:00:00,
2013-02-16 18:05:00,19.2,0.4,29.37,WNW,303,0.0,0.0,43,0.00,,---,0.04,VWS V14.01,2013-02-16 23:05:00,
2013-02-16 18:10:00,19.2,0.4,29.37,NNW,330,0.0,0.0,43,0.00,,---,0.04,VWS V14.01,2013-02-16 23:10:00,
2013-02-16 18:15:00,19.0,0.2,29.37,NNW,329,0.0,0.0,43,0.00,,---,0.04,VWS V14.01,2013-02-16 23:15:00,
2013-02-16 18:20:00,18.9,0.1,29.37,NW,325,0.0,0.0,43,0.00,,---,0.04,VWS V14.01,2013-02-16 23:20:00,
2013-02-16 18:25:00,19.0,0.2,29.37,North,353,0.0,0.0,43,0.00,,---,0.04,VWS V14.01,2013-02-16 23:25:00,
2013-02-16 18:30:00,19.2,0.4,29.37,West,278,2.7,2.7,43,0.00,,---,0.04,VWS V14.01,2013-02-16 23:30:00,
2013-02-16 18:35:00,19.4,0.6,29.37,NE,37,0.0,0.0,43,0.00,,---,0.04,VWS V14.01,2013-02-16 23:35:00,
2013-02-16 18:40:00,19.6,0.7,29.37,NW,320,3.1,3.1,43,0.00,,---,0.04,VWS V14.01,2013-02-16 23:40:00,
2013-02-16 18:45:00,19.4,0.6,29.37,WSW,251,0.0,0.0,43,0.00,,---,0.04,VWS V14.01,2013-02-16 23:45:00,
2013-02-16 18:50:00,19.6,0.7,29.37,West,262,3.6,5.8,43,0.00,,---,0.04,VWS V14.01,2013-02-16 23:50:00,
2013-02-16 18:55:00,19.8,0.9,29.37,NW,325,0.0,0.0,43,0.00,,---,0.04,VWS V14.01,2013-02-16 23:55:00,
2013-02-16 19:00:00,19.9,1.1,29.37,SW,227,0.0,0.0,43,0.00,,---,0.04,VWS V14.01,2013-02-17 00:00:00,
2013-02-16 19:05:00,19.9,1.1,29.37,NNE,30,0.0,0.0,43,0.00,,---,0.04,VWS V14.01,2013-02-17 00:05:00,
2013-02-16 19:10:00,19.8,0.9,29.37,WSW,256,0.0,0.0,43,0.00,,---,0.04,VWS V14.01,2013-02-17 00:10:00,
2013-02-16 19:15:00,19.6,0.7,29.37,WSW,244,2.7,3.1,43,0.00,,---,0.04,VWS V14.01,2013-02-17 00:15:00,
2013-02-16 19:20:00,19.2,0.4,29.37,West,263,0.0,0.0,43,0.00,,---,0.04,VWS V14.01,2013-02-17 00:20:00,
2013-02-16 19:25:00,18.5,-0.3,29.37,North,353,0.0,3.1,43,0.00,,---,0.04,VWS V14.01,2013-02-17 00:25:00,
2013-02-16 19:30:00,18.5,-0.3,29.37,West,271,0.0,0.0,43,0.00,,---,0.04,VWS V14.01,2013-02-17 00:30:00,
2013-02-16 19:35:00,18.5,-0.3,29.37,WNW,282,0.0,0.0,43,0.00,,---,0.04,VWS V14.01,2013-02-17 00:35:00,
2013-02-16 19:40:00,18.1,-0.6,29.37,WNW,288,0.0,0.0,43,0.00,,---,0.04,VWS V14.01,2013-02-17 00:40:00,
2013-02-16 19:45:00,17.6,-0.6,29.37,West,261,0.0,0.0,44,0.00,,---,0.04,VWS V14.01,2013-02-17 00:45:00,
2013-02-16 19:50:00,17.4,-0.8,29.37,NW,304,0.0,0.0,44,0.00,,---,0.04,VWS V14.01,2013-02-17 00:50:00,
2013-02-16 19:55:00,17.1,-1.1,29.37,NW,317,0.0,0.0,44,0.00,,---,0.04,VWS V14.01,2013-02-17 00:55:00,
2013-02-16 20:00:00,16.9,-1.2,29.37,NW,311,0.0,0.0,44,0.00,,---,0.04,VWS V14.01,2013-02-17 01:00:00,
2013-02-16 20:05:00,16.5,-1.6,29.37,West,265,0.0,0.0,44,0.00,,---,0.04,VWS V14.01,2013-02-17 01:05:00,
2013-02-16 20:10:00,16.2,-1.9,29.37,WNW,294,0.0,0.0,44,0.00,,---,0.04,VWS V14.01,2013-02-17 01:10:00,
2013-02-16 20:15:00,16.3,-1.7,29.34,NW,307,0.0,0.0,44,0.00,,---,0.04,VWS V14.01,2013-02-17 01:15:00,
2013-02-16 20:20:00,16.2,-1.9,29.34,NW,323,0.0,0.0,44,0.00,,---,0.04,VWS V14.01,2013-02-17 01:20:00,
2013-02-16 20:25:00,16.0,-2.1,29.34,WNW,282,0.0,0.0,44,0.00,,---,0.04,VWS V14.01,2013-02-17 01:25:00,
2013-02-16 20:30:00,15.4,-2.6,29.34,NW,317,0.0,0.0,44,0.00,,---,0.04,VWS V14.01,2013-02-17 01:30:00,
2013-02-16 20:35:00,15.4,-2.6,29.34,NW,317,0.0,0.0,44,0.00,,---,0.04,VWS V14.01,2013-02-17 01:35:00,
2013-02-16 20:40:00,15.1,-2.9,29.34,NW,317,0.0,0.0,44,0.00,,---,0.04,VWS V14.01,2013-02-17 01:40:00,
2013-02-16 20:45:00,14.5,-3.4,29.34,NW,317,0.0,0.0,44,0.00,,---,0.04,VWS V14.01,2013-02-17 01:45:00,
2013-02-16 20:50:00,14.2,-3.7,29.34,NW,317,0.0,0.0,44,0.00,,---,0.04,VWS V14.01,2013-02-17 01:50:00,
2013-02-16 20:55:00,13.8,-4.1,29.34,NW,317,0.0,0.0,44,0.00,,---,0.04,VWS V14.01,2013-02-17 01:55:00,
2013-02-16 21:00:00,13.5,-4.4,29.34,NW,317,0.0,0.0,44,0.00,,---,0.04,VWS V14.01,2013-02-17 02:00:00,
2013-02-16 21:05:00,13.1,-4.7,29.34,NW,317,0.0,0.0,44,0.00,,---,0.04,VWS V14.01,2013-02-17 02:05:00,
2013-02-16 21:10:00,12.9,-4.9,29.34,NW,317,0.0,0.0,44,0.00,,---,0.04,VWS V14.01,2013-02-17 02:10:00,
2013-02-16 21:15:00,12.7,-5.0,29.34,NW,317,0.0,0.0,44,0.00,,---,0.04,VWS V14.01,2013-02-17 02:15:00,
2013-02-16 21:20:00,12.6,-5.2,29.34,NW,317,0.0,0.0,44,0.00,,---,0.04,VWS V14.01,2013-02-17 02:20:00,
2013-02-16 21:25:00,12.4,-5.4,29.34,NW,317,0.0,0.0,44,0.00,,---,0.04,VWS V14.01,2013-02-17 02:25:00,
2013-02-16 21:30:00,12.2,-5.5,29.34,NW,317,0.0,0.0,44,0.00,,---,0.04,VWS V14.01,2013-02-17 02:30:00,
2013-02-16 21:35:00,12.2,-5.5,29.34,NW,317,0.0,0.0,44,0.00,,---,0.04,VWS V14.01,2013-02-17 02:35:00,
2013-02-16 21:40:00,12.0,-5.7,29.34,NW,317,0.0,0.0,44,0.00,,---,0.04,VWS V14.01,2013-02-17 02:40:00,
2013-02-16 21:45:00,11.8,-5.9,29.34,NW,317,0.0,0.0,44,0.00,,---,0.04,VWS V14.01,2013-02-17 02:45:00,
2013-02-16 21:50:00,11.8,-5.9,29.34,NW,317,0.0,0.0,44,0.00,,---,0.04,VWS V14.01,2013-02-17 02:50:00,
2013-02-16 21:55:00,11.8,-5.9,29.34,NW,317,0.0,0.0,44,0.00,,---,0.04,VWS V14.01,2013-02-17 02:55:00,
2013-02-16 22:00:00,11.7,-6.0,29.34,NW,317,0.0,0.0,44,0.00,,---,0.04,VWS V14.01,2013-02-17 03:00:00,
2013-02-16 22:05:00,11.7,-6.0,29.34,NW,317,0.0,0.0,44,0.00,,---,0.04,VWS V14.01,2013-02-17 03:05:00,
2013-02-16 22:10:00,11.7,-6.0,29.34,NW,317,0.0,0.0,44,0.00,,---,0.04,VWS V14.01,2013-02-17 03:10:00,
2013-02-16 22:15:00,11.7,-6.0,29.34,NW,317,0.0,0.0,44,0.00,,---,0.04,VWS V14.01,2013-02-17 03:15:00,
2013-02-16 22:20:00,11.7,-6.0,29.34,NW,317,0.0,0.0,44,0.00,,---,0.04,VWS V14.01,2013-02-17 03:20:00,
2013-02-16 22:25:00,11.8,-5.9,29.34,NW,317,0.0,0.0,44,0.00,,---,0.04,VWS V14.01,2013-02-17 03:25:00,
2013-02-16 22:30:00,12.2,-5.5,29.34,NW,317,0.0,0.0,44,0.00,,---,0.04,VWS V14.01,2013-02-17 03:30:00,
2013-02-16 22:35:00,12.9,-4.9,29.34,NW,317,0.0,0.0,44,0.00,,---,0.04,VWS V14.01,2013-02-17 03:35:00,
2013-02-16 22:40:00,13.5,-4.4,29.34,NW,317,0.0,0.0,44,0.00,,---,0.04,VWS V14.01,2013-02-17 03:40:00,
2013-02-16 22:45:00,14.2,-3.7,29.34,NW,317,0.0,0.0,44,0.00,,---,0.04,VWS V14.01,2013-02-17 03:45:00,
2013-02-16 22:50:00,14.7,-3.2,29.34,NW,317,0.0,0.0,44,0.00,,---,0.04,VWS V14.01,2013-02-17 03:50:00,
2013-02-16 22:55:00,15.3,-2.7,29.34,NW,317,0.0,0.0,44,0.00,,---,0.04,VWS V14.01,2013-02-17 03:55:00,
2013-02-16 23:00:00,15.6,-2.4,29.34,NW,317,0.0,0.0,44,0.00,,---,0.04,VWS V14.01,2013-02-17 04:00:00,
2013-02-16 23:05:00,15.8,-2.2,29.34,NW,317,0.0,0.0,44,0.00,,---,0.04,VWS V14.01,2013-02-17 04:05:00,
2013-02-16 23:10:00,16.0,-2.1,29.34,NW,317,0.0,0.0,44,0.00,,---,0.04,VWS V14.01,2013-02-17 04:10:00,
2013-02-16 23:15:00,16.2,-1.9,29.31,NW,308,0.0,0.0,44,0.00,,---,0.04,VWS V14.01,2013-02-17 04:15:00,
2013-02-16 23:20:00,16.5,-1.6,29.31,WNW,300,0.0,0.0,44,0.00,,---,0.04,VWS V14.01,2013-02-17 04:20:00,
2013-02-16 23:25:00,16.9,-1.2,29.31,ENE,73,0.0,2.2,44,0.00,,---,0.04,VWS V14.01,2013-02-17 04:25:00,
2013-02-16 23:30:00,16.9,-1.2,29.31,NW,307,0.0,0.0,44,0.00,,---,0.04,VWS V14.01,2013-02-17 04:30:00,
2013-02-16 23:35:00,16.9,-1.2,29.31,WSW,257,3.1,3.6,44,0.00,,---,0.04,VWS V14.01,2013-02-17 04:35:00,
2013-02-16 23:40:00,16.7,-1.4,29.31,WSW,247,2.7,2.7,44,0.00,,---,0.04,VWS V14.01,2013-02-17 04:40:00,
2013-02-16 23:45:00,16.7,-1.4,29.31,WNW,303,0.0,3.1,44,0.00,,---,0.04,VWS V14.01,2013-02-17 04:45:00,
2013-02-16 23:50:00,17.1,-1.1,29.31,NW,310,3.6,3.6,44,0.00,,---,0.04,VWS V14.01,2013-02-17 04:50:00,
2013-02-16 23:55:00,17.4,-0.8,29.31,West,272,5.4,5.4,44,0.00,,---,0.04,VWS V14.01,2013-02-17 04:55:00,